ROMMA est une association bénévole à but non lucratif. Votre soutien est indispensable : ADHERER à ROMMA ou FAIRE un DON

Crest - (26, Drôme)

Vallée de la Drôme (315 m)   Longitude: 5°2' E   Latitude: 44°44' N Station partenaire n°62
 

Détail journalier du     <<     >>

Température Precipitation Humidité Pression Vent Dir Rafale Dir. rafale Ensol.
Heure (°C) (mm) (%) (hPa) (km/h) (km/h) (min)
01:00 21.304810144SE19SE0
02:00 20.305810155SE18SE0
03:00 20.107510155SE23SE0
04:00 19.907710152SE13SE0
05:00 19.3077101505ESE0
06:00 18.60.58610152SE13ENE0
07:00 17.508610153ESE11ESE0
08:00 17.31.38810154NE24ENE3
09:00 17.31.58910163SSE11ENE0
10:00 18.209210163SE11ENE0
11:00 20.508410164NE16NE30
12:00 22.107210164ESE13ESE15
13:00 22.707010167NE24NE11
14:00 23.1066101611SSO23SSO5
15:00 22.9068101614NE29N6
16:00 23.3066101616SSO34SSO21
17:00 21.4068101619SSO42NNO27
18:00 19.6072101720SSO39SO17
19:00 18.6074101720SSO44SSO7
20:00 17.9076101718SSO35SSO0
21:00 17.6074101815SSO32SSO0
22:00 17.5073101911SSO29S0
23:00 16.9076101910SSO19SO0
minuit 16.7077101912SSO29NE0

Graphique du 19-08-2019

 

Serveur OMMA